GW0935 Weather Reports


Display with metric or nautical units.
time (UTC)temp
F
wind
direction
speed
MPH
gust
MPH
rain 1hr
in
rain 24hr
in
rain mn
in
humidity
%
barometer
mb
20260508104802 60 106 2.0 6.0 0.00 0.00 0.00 61 1016.8
20260508104603 60 158 2.0 6.0 0.00 0.00 0.00 61 1016.8
20260508104402 60 143 3.0 6.0 0.00 0.00 0.00 61 1016.8
20260508104203 60 155 0.0 5.0 0.00 0.00 0.00 62 1016.8
20260508104003 60 141 1.0 5.0 0.00 0.00 0.00 61 1016.9
20260508103804 60 104 1.0 5.0 0.00 0.00 0.00 61 1016.8
20260508103602 60 119 1.0 4.0 0.00 0.00 0.00 62 1016.9
20260508103402 60 150 1.0 4.0 0.00 0.00 0.00 64 1016.8
20260508103202 59 80 1.0 4.0 0.00 0.00 0.00 63 1016.8
20260508103003 59 140 1.0 6.0 0.00 0.00 0.00 65 1016.9
20260508102802 59 104 0.0 6.0 0.00 0.00 0.00 65 1016.8
20260508102603 59 147 1.0 6.0 0.00 0.00 0.00 67 1016.9
20260508102402 59 99 2.0 6.0 0.00 0.00 0.00 68 1017.0
20260508102004 58 134 1.0 5.0 0.00 0.00 0.00 70 1016.9
20260508101802 58 151 1.0 5.0 0.00 0.00 0.00 72 1016.9
20260508101202 57 155 1.0 5.0 0.00 0.00 0.00 73 1017.0
20260508101004 57 157 1.0 5.0 0.00 0.00 0.00 74 1017.0
20260508100804 57 226 0.0 5.0 0.00 0.00 0.00 74 1016.9
20260508100404 57 167 3.0 5.0 0.00 0.00 0.00 74 1017.1
20260508100203 56 232 1.0 3.0 0.00 0.00 0.00 76 1017.0
20260508100007 56 248 1.0 3.0 0.00 0.00 0.00 76 1017.0
20260508095603 56 229 2.0 4.0 0.00 0.00 0.00 77 1017.0
20260508095403 56 147 2.0 4.0 0.00 0.00 0.00 77 1017.0
20260508095203 55 215 2.0 4.0 0.00 0.00 0.00 76 1017.0
20260508095004 55 117 1.0 3.0 0.00 0.00 0.00 77 1017.0
20260508094802 55 168 0.0 3.0 0.00 0.00 0.00 78 1017.0
20260508094603 55 172 0.0 3.0 0.00 0.00 0.00 78 1017.0
20260508094403 55 122 0.0 4.0 0.00 0.00 0.00 78 1017.0
20260508094203 55 132 0.0 4.0 0.00 0.00 0.00 78 1017.0
20260508094004 55 107 1.0 4.0 0.00 0.00 0.00 77 1017.0
20260508093803 55 158 2.0 4.0 0.00 0.00 0.00 77 1016.9
20260508093602 55 146 0.0 4.0 0.00 0.00 0.00 77 1016.9
20260508093405 55 157 0.0 4.0 0.00 0.00 0.00 77 1016.9
20260508093203 55 151 1.0 4.0 0.00 0.00 0.00 77 1016.9
20260508092804 55 148 0.0 2.0 0.00 0.00 0.00 77 1017.0
20260508092603 55 248 1.0 2.0 0.00 0.00 0.00 76 1016.8
20260508092402 55 169 1.0 2.0 0.00 0.00 0.00 76 1016.9
20260508092004 55 144 1.0 3.0 0.00 0.00 0.00 77 1016.9
20260508091803 55 131 0.0 3.0 0.00 0.00 0.00 76 1016.9
20260508091602 55 131 1.0 3.0 0.00 0.00 0.00 77 1016.8
20260508091402 55 120 0.0 3.0 0.00 0.00 0.00 76 1016.8
20260508091004 55 211 1.0 2.0 0.00 0.00 0.00 76 1016.8
20260508090804 55 156 0.0 2.0 0.00 0.00 0.00 76 1016.9
20260508090602 55 143 0.0 4.0 0.00 0.00 0.00 76 1016.8
20260508090404 55 149 0.0 4.0 0.00 0.00 0.00 76 1016.8
20260508090203 55 198 0.0 4.0 0.00 0.00 0.00 76 1016.8
20260508090010 55 155 1.0 4.0 0.00 0.00 0.00 76 1016.7
20260508085802 55 199 1.0 4.0 0.00 0.00 0.00 76 1016.9
20260508085202 55 112 1.0 4.0 0.00 0.00 0.00 76 1016.7
20260508085003 55 128 2.0 4.0 0.00 0.00 0.00 76 1016.8
20260508084803 55 202 0.0 2.0 0.00 0.00 0.00 76 1016.8
20260508084603 55 176 0.0 2.0 0.00 0.00 0.00 76 1016.7
20260508084403 55 143 0.0 4.0 0.00 0.00 0.00 76 1016.7
20260508084203 55 166 0.0 5.0 0.00 0.00 0.00 76 1016.7
20260508083604 55 144 3.0 5.0 0.00 0.00 0.00 75 1016.7
20260508083403 55 146 1.0 5.0 0.00 0.00 0.00 76 1016.8
20260508083204 55 156 2.0 4.0 0.00 0.00 0.00 76 1016.7
20260508083003 55 219 2.0 5.0 0.00 0.00 0.00 75 1016.7
20260508082804 55 314 1.0 5.0 0.00 0.00 0.00 75 1016.8
20260508082603 55 198 2.0 5.0 0.00 0.00 0.00 75 1016.7
20260508082404 55 158 2.0 5.0 0.00 0.00 0.00 74 1016.7
20260508082005 55 156 1.0 3.0 0.00 0.00 0.00 75 1016.7
20260508081604 55 270 0.0 2.0 0.00 0.00 0.00 76 1016.7
20260508081402 55 60 0.0 2.0 0.00 0.00 0.00 77 1016.7
20260508081204 54 126 0.0 2.0 0.00 0.00 0.00 77 1016.7
20260508081003 54 163 0.0 2.0 0.00 0.00 0.00 77 1016.8
20260508080203 53 111 0.0 2.0 0.00 0.00 0.00 77 1016.7
20260508080006 53 110 0.0 2.0 0.00 0.00 0.00 78 1016.7
20260508075801 53 134 1.0 3.0 0.00 0.00 0.00 78 1016.7
20260508075602 53 146 0.0 3.0 0.00 0.00 0.00 79 1016.6
20260508075402 53 147 0.0 3.0 0.00 0.00 0.00 79 1016.7
20260508075201 53 100 1.0 3.0 0.00 0.00 0.00 79 1016.6
20260508075003 52 164 1.0 3.0 0.00 0.00 0.00 79 1016.6
20260508074802 52 169 0.0 3.0 0.00 0.00 0.00 80 1016.6
20260508074602 52 110 0.0 3.0 0.00 0.00 0.00 79 1016.6
20260508074401 52 163 1.0 3.0 0.00 0.00 0.00 79 1016.5
20260508074202 52 158 1.0 3.0 0.00 0.00 0.00 79 1016.6
20260508074002 52 165 0.0 1.0 0.00 0.00 0.00 80 1016.6
20260508073803 52 104 0.0 1.0 0.00 0.00 0.00 80 1016.6
20260508073601 52 140 0.0 1.0 0.00 0.00 0.00 80 1016.6
20260508073401 52 90 0.0 1.0 0.00 0.00 0.00 80 1016.6
20260508073201 52 90 0.0 1.0 0.00 0.00 0.00 80 1016.6
20260508073002 52 210 0.0 1.0 0.00 0.00 0.00 80 1016.6
20260508072601 51 151 0.0 2.0 0.00 0.00 0.00 80 1016.6
20260508072402 51 133 0.0 4.0 0.00 0.00 0.00 81 1016.5
20260508072202 51 133 0.0 4.0 0.00 0.00 0.00 81 1016.5
20260508072005 51 132 0.0 4.0 0.00 0.00 0.00 80 1016.5
20260508071404 51 52 1.0 4.0 0.00 0.00 0.00 80 1016.5
20260508071202 51 122 1.0 4.0 0.00 0.00 0.00 81 1016.5
20260508070804 51 143 0.0 3.0 0.00 0.00 0.00 81 1016.5
20260508070602 51 110 1.0 3.0 0.00 0.00 0.00 81 1016.5
20260508070403 51 170 1.0 3.0 0.00 0.00 0.00 81 1016.5
20260508070201 51 136 0.0 2.0 0.00 0.00 0.00 81 1016.5
20260508070007 51 130 0.0 2.0 0.00 0.00 0.00 82 1016.4
20260508065802 51 133 0.0 1.0 0.00 0.00 0.00 82 1016.3
20260508065603 51 133 0.0 1.0 0.00 0.00 0.00 83 1016.3
20260508065402 50 104 0.0 2.0 0.00 0.00 0.00 83 1016.2
20260508065203 50 103 0.0 3.0 0.00 0.00 0.00 83 1016.3
20260508065003 50 103 0.0 3.0 0.00 0.00 0.00 83 1016.2
20260508064804 50 55 0.0 3.0 0.00 0.00 0.00 83 1016.2
20260508064403 50 87 0.0 3.0 0.00 0.00 0.00 83 1016.2
20260508064201 50 136 0.0 1.0 0.00 0.00 0.00 84 1016.2
20260508064004 50 155 0.0 1.0 0.00 0.00 0.00 85 1016.1
20260508063802 49 89 0.0 1.0 0.00 0.00 0.00 85 1016.1
20260508063604 49 86 0.0 2.0 0.00 0.00 0.00 85 1016.0
20260508063203 49 86 0.0 2.0 0.00 0.00 0.00 85 1016.0
20260508063002 49 86 0.0 2.0 0.00 0.00 0.00 85 1016.0
20260508062602 49 85 0.0 2.0 0.00 0.00 0.00 86 1016.0
20260508062403 48 59 0.0 1.0 0.00 0.00 0.00 86 1016.1
20260508062203 48 76 0.0 1.0 0.00 0.00 0.00 86 1016.1
20260508062004 48 76 0.0 2.0 0.00 0.00 0.00 86 1016.1
20260508061802 48 75 0.0 2.0 0.00 0.00 0.00 87 1016.0
20260508061603 48 88 0.0 2.0 0.00 0.00 0.00 87 1016.0
20260508061402 48 89 0.0 2.0 0.00 0.00 0.00 87 1015.9
20260508061203 48 35 0.0 1.0 0.00 0.00 0.00 87 1015.9
20260508061003 47 87 0.0 2.0 0.00 0.00 0.00 88 1015.8
20260508060803 47 87 0.0 2.0 0.00 0.00 0.00 88 1015.9
20260508060601 47 87 0.0 2.0 0.00 0.00 0.00 88 1015.8
20260508060403 47 87 0.0 2.0 0.00 0.00 0.00 88 1015.9
20260508060008 47 75 0.0 0.0 0.00 0.00 0.00 88 1015.9
20260508055802 47 87 0.0 1.0 0.00 0.00 0.00 88 1015.8
20260508055401 47 87 0.0 2.0 0.00 0.00 0.00 89 1015.8
20260508055203 46 87 0.0 2.0 0.00 0.00 0.00 89 1015.8
20260508055003 46 86 0.0 2.0 0.00 0.00 0.00 89 1015.7
20260508054803 46 87 0.0 2.0 0.00 0.00 0.00 89 1015.8
20260508054602 46 94 0.0 2.0 0.00 0.00 0.00 89 1015.7
20260508054403 46 91 0.0 2.0 0.00 0.00 0.00 89 1015.7
20260508054202 46 104 0.0 1.0 0.00 0.00 0.00 89 1015.6
20260508054004 46 117 0.0 1.0 0.00 0.00 0.00 89 1015.7
20260508053801 46 106 0.0 1.0 0.00 0.00 0.00 90 1015.7
20260508053603 46 132 0.0 0.0 0.00 0.00 0.00 90 1015.7
20260508053401 46 142 0.0 0.0 0.00 0.00 0.00 90 1015.6
20260508053203 46 142 0.0 0.0 0.00 0.00 0.00 90 1015.7
20260508053003 46 142 0.0 0.0 0.00 0.00 0.00 90 1015.7
20260508052804 46 141 0.0 0.0 0.00 0.00 0.00 90 1015.6
20260508052601 46 142 0.0 0.0 0.00 0.00 0.00 90 1015.6
20260508052403 46 142 0.0 0.0 0.00 0.00 0.00 90 1015.6
20260508052202 46 142 0.0 0.0 0.00 0.00 0.00 89 1015.6
20260508052002 46 142 0.0 0.0 0.00 0.00 0.00 89 1015.6
20260508051602 46 142 0.0 0.0 0.00 0.00 0.00 89 1015.5
20260508051402 46 142 0.0 0.0 0.00 0.00 0.00 89 1015.5
20260508051202 46 144 0.0 0.0 0.00 0.00 0.00 89 1015.5
20260508051003 46 144 0.0 0.0 0.00 0.00 0.00 89 1015.4
20260508050802 46 144 0.0 0.0 0.00 0.00 0.00 89 1015.5
20260508050602 46 144 0.0 0.0 0.00 0.00 0.00 89 1015.5
20260508050402 46 144 0.0 0.0 0.00 0.00 0.00 89 1015.5
20260508050202 46 144 0.0 0.0 0.00 0.00 0.00 89 1015.5
20260508045802 46 144 0.0 1.0 0.00 0.00 0.00 89 1015.5
20260508045602 46 144 0.0 1.0 0.00 0.00 0.00 89 1015.5
20260508045202 46 144 0.0 1.0 0.00 0.00 0.00 88 1015.4
20260508045003 46 144 0.0 1.0 0.00 0.00 0.00 88 1015.4
20260508044802 46 144 0.0 1.0 0.00 0.00 0.00 88 1015.4
20260508044602 46 81 0.0 1.0 0.00 0.00 0.00 88 1015.3
20260508044402 46 60 0.0 1.0 0.00 0.00 0.00 88 1015.3
20260508044003 47 61 0.0 1.0 0.00 0.00 0.00 88 1015.3
20260508043802 47 279 0.0 2.0 0.00 0.00 0.00 88 1015.3
20260508043602 47 87 0.0 2.0 0.00 0.00 0.00 88 1015.4
20260508043402 47 83 0.0 2.0 0.00 0.00 0.00 88 1015.3
20260508043202 47 82 0.0 2.0 0.00 0.00 0.00 88 1015.4
20260508043003 47 89 0.0 2.0 0.00 0.00 0.00 88 1015.3
20260508042802 47 88 0.0 1.0 0.00 0.00 0.00 88 1015.4
20260508042602 47 88 0.0 1.0 0.00 0.00 0.00 88 1015.3
20260508042402 47 89 0.0 1.0 0.00 0.00 0.00 88 1015.3
20260508042202 47 89 0.0 1.0 0.00 0.00 0.00 88 1015.3
20260508042005 47 89 0.0 1.0 0.00 0.00 0.00 88 1015.4
20260508041802 47 89 0.0 1.0 0.00 0.00 0.00 88 1015.4
20260508041402 47 89 0.0 1.0 0.00 0.00 0.00 88 1015.3
20260508041204 47 89 0.0 1.0 0.00 0.00 0.00 88 1015.3
20260508040803 47 88 0.0 2.0 0.00 0.00 0.00 88 1015.4
20260508040602 47 104 0.0 2.0 0.00 0.00 0.00 88 1015.4
20260508040403 47 98 0.0 2.0 0.00 0.00 0.00 88 1015.3
20260508040202 47 85 0.0 2.0 0.00 0.00 0.00 88 1015.3
20260508040006 47 70 0.0 1.0 0.00 0.00 0.00 88 1015.3
20260508035802 47 70 0.0 1.0 0.00 0.00 0.00 88 1015.2
20260508035602 47 69 0.0 1.0 0.00 0.00 0.00 88 1015.3
20260508035202 47 68 0.0 1.0 0.00 0.00 0.00 88 1015.4
20260508035003 47 68 0.0 1.0 0.00 0.00 0.00 88 1015.3
20260508034802 47 76 0.0 1.0 0.00 0.00 0.00 88 1015.4
20260508034602 47 79 0.0 1.0 0.00 0.00 0.00 89 1015.3
20260508034402 47 79 0.0 1.0 0.00 0.00 0.00 89 1015.3
20260508033802 46 79 0.0 0.0 0.00 0.00 0.00 89 1015.2
20260508033602 46 78 0.0 0.0 0.00 0.00 0.00 89 1015.2
20260508033401 46 80 0.0 0.0 0.00 0.00 0.00 89 1015.2
20260508033202 46 80 0.0 0.0 0.00 0.00 0.00 89 1015.3
20260508033003 46 80 0.0 0.0 0.00 0.00 0.00 89 1015.3
20260508032802 46 80 0.0 1.0 0.00 0.00 0.00 89 1015.2
20260508032402 46 80 0.0 1.0 0.00 0.00 0.00 89 1015.3
20260508032205 46 80 0.0 1.0 0.00 0.00 0.00 89 1015.3
20260508032003 46 80 0.0 1.0 0.00 0.00 0.00 89 1015.3
20260508031804 46 80 0.0 1.0 0.00 0.00 0.00 89 1015.2
20260508031602 46 80 0.0 1.0 0.00 0.00 0.00 89 1015.2
20260508031202 46 82 0.0 0.0 0.00 0.00 0.00 89 1015.3
20260508030802 46 82 0.0 0.0 0.00 0.00 0.00 89 1015.2
20260508030402 46 82 0.0 0.0 0.00 0.00 0.00 89 1015.2
20260508030203 46 82 0.0 1.0 0.00 0.00 0.00 88 1015.2
20260508030006 46 82 0.0 1.0 0.00 0.00 0.00 88 1015.1
20260508025601 46 82 0.0 1.0 0.00 0.00 0.00 89 1015.1
20260508025002 46 86 0.0 0.0 0.00 0.00 0.00 88 1015.1
20260508024800 46 86 0.0 0.0 0.00 0.00 0.00 88 1015.0
20260508024600 46 86 0.0 0.0 0.00 0.00 0.00 88 1015.2
20260508024401 46 86 0.0 0.0 0.00 0.00 0.00 88 1015.1
20260508024201 46 86 0.0 0.0 0.00 0.00 0.00 88 1015.0
20260508024001 46 86 0.0 0.0 0.00 0.00 0.00 88 1015.0
20260508023601 47 86 0.0 0.0 0.00 0.00 0.00 88 1015.2
20260508023401 47 86 0.0 0.0 0.00 0.00 0.00 88 1015.1
20260508023201 47 86 0.0 0.0 0.00 0.00 0.00 88 1015.1
20260508023001 47 86 0.0 0.0 0.00 0.00 0.00 88 1015.2
20260508022801 47 86 0.0 0.0 0.00 0.00 0.00 88 1015.2
20260508022401 47 110 0.0 0.0 0.00 0.00 0.00 88 1015.2
20260508022201 47 124 0.0 0.0 0.00 0.00 0.00 88 1015.1
20260508022001 47 124 0.0 0.0 0.00 0.00 0.00 88 1015.2
20260508021801 47 124 0.0 0.0 0.00 0.00 0.00 88 1015.3
20260508021600 47 124 0.0 0.0 0.00 0.00 0.00 88 1015.2
20260508021402 47 124 0.0 0.0 0.00 0.00 0.00 88 1015.2
20260508021202 47 124 0.0 0.0 0.00 0.00 0.00 88 1015.2
20260508021003 47 124 0.0 0.0 0.00 0.00 0.00 88 1015.3
20260508020801 47 124 0.0 0.0 0.00 0.00 0.00 88 1015.1
20260508020401 47 124 0.0 0.0 0.00 0.00 0.00 87 1015.2
20260508020204 47 123 0.0 0.0 0.00 0.00 0.00 87 1015.2
20260508020004 47 124 0.0 0.0 0.00 0.00 0.00 87 1015.2
20260508015801 47 124 0.0 0.0 0.00 0.00 0.00 87 1015.2
20260508015400 47 124 0.0 0.0 0.00 0.00 0.00 87 1015.2
20260508015201 47 124 0.0 0.0 0.00 0.00 0.00 87 1015.2
20260508015002 47 124 0.0 0.0 0.00 0.00 0.00 87 1015.0
20260508014801 47 124 0.0 0.0 0.00 0.00 0.00 87 1015.1
20260508014601 47 124 0.0 0.0 0.00 0.00 0.00 87 1015.2
20260508014400 47 124 0.0 0.0 0.00 0.00 0.00 87 1015.1
20260508014200 47 124 0.0 0.0 0.00 0.00 0.00 86 1015.1
20260508014002 47 123 0.0 0.0 0.00 0.00 0.00 86 1015.2
20260508013801 48 124 0.0 0.0 0.00 0.00 0.00 86 1015.1
20260508013601 48 124 0.0 0.0 0.00 0.00 0.00 86 1015.2
20260508013401 48 124 0.0 0.0 0.00 0.00 0.00 86 1015.2
20260508013002 48 105 0.0 0.0 0.00 0.00 0.00 86 1015.0
20260508012800 48 105 0.0 0.0 0.00 0.00 0.00 86 1015.1
20260508012601 48 105 0.0 0.0 0.00 0.00 0.00 85 1015.1
20260508012201 48 105 0.0 0.0 0.00 0.00 0.00 85 1015.1
20260508012004 48 105 0.0 0.0 0.00 0.00 0.00 85 1015.0
20260508011602 48 105 0.0 0.0 0.00 0.00 0.00 85 1015.0
20260508011401 48 106 0.0 0.0 0.00 0.00 0.00 85 1015.0
20260508011202 48 122 0.0 0.0 0.00 0.00 0.00 85 1015.0
20260508011002 48 131 0.0 0.0 0.00 0.00 0.00 85 1015.0
20260508010802 48 131 0.0 0.0 0.00 0.00 0.00 85 1015.1
20260508010600 48 131 0.0 0.0 0.00 0.00 0.00 85 1015.0
20260508010402 49 131 0.0 0.0 0.00 0.00 0.00 85 1015.0
20260508010202 49 131 0.0 0.0 0.00 0.00 0.00 85 1015.1
20260508010006 49 131 0.0 0.0 0.00 0.00 0.00 85 1015.1
20260508005801 49 131 0.0 0.0 0.00 0.00 0.00 85 1015.1
20260508005601 49 71 0.0 0.0 0.00 0.00 0.00 85 1015.1
20260508005401 49 70 0.0 0.0 0.00 0.00 0.00 85 1015.0
20260508005201 49 70 0.0 0.0 0.00 0.00 0.00 85 1015.0
20260508004600 49 71 0.0 0.0 0.00 0.00 0.00 85 1015.2
20260508004401 49 71 0.0 0.0 0.00 0.00 0.00 85 1015.1
20260508004201 49 71 0.0 0.0 0.00 0.00 0.00 85 1015.2
20260508003801 49 71 0.0 0.0 0.00 0.00 0.00 85 1015.2
20260508003400 48 62 0.0 0.0 0.00 0.00 0.00 85 1015.2
20260508003200 48 62 0.0 0.0 0.00 0.00 0.00 85 1015.3
20260508003001 48 62 0.0 0.0 0.00 0.00 0.00 85 1015.2
20260508002801 48 62 0.0 0.0 0.00 0.00 0.00 85 1015.2
20260508002401 48 62 0.0 0.0 0.00 0.00 0.00 85 1015.3
20260508002204 48 62 0.0 0.0 0.00 0.00 0.00 85 1015.2
20260508002001 48 62 0.0 0.0 0.00 0.00 0.00 85 1015.3
20260508001800 48 62 0.0 0.0 0.00 0.00 0.00 85 1015.2
20260508001400 48 62 0.0 0.0 0.00 0.00 0.00 84 1015.3
20260508001200 49 62 0.0 0.0 0.00 0.00 0.00 84 1015.3
20260508000801 49 62 0.0 0.0 0.00 0.00 0.00 84 1015.3
20260508000601 49 62 0.0 0.0 0.00 0.00 0.00 84 1015.3
20260508000400 49 60 0.0 0.0 0.00 0.00 0.00 84 1015.3
20260508000204 49 60 0.0 0.0 0.00 0.00 0.00 84 1015.3
20260508000004 49 60 0.0 0.0 0.00 0.00 0.00 84 1015.2
20260507235801 49 60 0.0 0.0 0.00 0.00 0.00 84 1015.2
20260507235600 49 61 0.0 0.0 0.00 0.00 0.00 84 1015.3
20260507235400 49 94 0.0 0.0 0.00 0.00 0.00 84 1015.2
20260507235201 49 119 0.0 0.0 0.00 0.00 0.00 84 1015.3
20260507235001 48 119 0.0 0.0 0.00 0.00 0.00 84 1015.3
20260507234800 48 119 0.0 0.0 0.00 0.00 0.00 84 1015.3
20260507234601 48 119 0.0 0.0 0.00 0.00 0.00 84 1015.2
20260507234400 48 119 0.0 0.0 0.00 0.00 0.00 85 1015.3
20260507234001 48 119 0.0 0.0 0.00 0.00 0.00 85 1015.2
20260507233400 48 119 0.0 0.0 0.00 0.00 0.00 85 1015.2
20260507233200 48 119 0.0 0.0 0.00 0.00 0.00 85 1015.3
20260507233002 48 119 0.0 0.0 0.00 0.00 0.00 85 1015.3
20260507232602 48 119 0.0 0.0 0.00 0.00 0.00 85 1015.3
20260507232400 48 119 0.0 0.0 0.00 0.00 0.00 85 1015.3
20260507232200 48 119 0.0 0.0 0.00 0.00 0.00 84 1015.3
20260507232001 48 119 0.0 0.0 0.00 0.00 0.00 84 1015.3
20260507231801 48 119 0.0 0.0 0.00 0.00 0.00 84 1015.4
20260507231600 48 119 0.0 0.0 0.00 0.00 0.00 84 1015.4
20260507231402 48 119 0.0 0.0 0.00 0.00 0.00 84 1015.3
20260507231200 48 119 0.0 0.0 0.00 0.00 0.00 84 1015.3
20260507231001 48 119 0.0 0.0 0.00 0.00 0.00 84 1015.3
20260507230801 48 119 0.0 0.0 0.00 0.00 0.00 84 1015.3
20260507230400 48 119 0.0 0.0 0.00 0.00 0.00 83 1015.2
20260507230204 48 119 0.0 0.0 0.00 0.00 0.00 83 1015.3
20260507230008 48 119 0.0 0.0 0.00 0.00 0.00 83 1015.2
20260507225805 49 119 0.0 0.0 0.00 0.00 0.00 82 1015.2
20260507225405 49 119 0.0 0.0 0.00 0.00 0.00 82 1015.2
20260507225204 49 119 0.0 0.0 0.00 0.00 0.00 82 1015.2
20260507225006 49 119 0.0 0.0 0.00 0.00 0.00 82 1015.2
20260507224605 49 119 0.0 0.0 0.00 0.00 0.00 82 1015.1
20260507224404 49 119 0.0 0.0 0.00 0.00 0.00 82 1015.1
20260507224205 49 119 0.0 0.0 0.00 0.00 0.00 81 1015.1
20260507224004 49 119 0.0 0.0 0.00 0.00 0.00 81 1015.1
20260507223806 50 119 0.0 0.0 0.00 0.00 0.00 81 1015.1
20260507223603 50 119 0.0 0.0 0.00 0.00 0.00 81 1015.2
20260507223403 50 119 0.0 0.0 0.00 0.00 0.00 81 1015.2
20260507223204 50 119 0.0 0.0 0.00 0.00 0.00 81 1015.2
20260507222803 50 119 0.0 0.0 0.00 0.00 0.00 81 1015.1
20260507222603 50 119 0.0 0.0 0.00 0.00 0.00 80 1015.1
20260507222403 50 119 0.0 0.0 0.00 0.00 0.00 80 1015.1
20260507222203 50 119 0.0 0.0 0.00 0.00 0.00 80 1015.1
20260507222004 50 119 0.0 0.0 0.00 0.00 0.00 80 1015.0
20260507221803 50 119 0.0 0.0 0.00 0.00 0.00 80 1015.0
20260507221403 50 119 0.0 0.0 0.00 0.00 0.00 80 1015.0
20260507221204 50 119 0.0 0.0 0.00 0.00 0.00 79 1015.0
20260507220804 51 119 0.0 0.0 0.00 0.00 0.00 79 1015.0
20260507220603 51 119 0.0 0.0 0.00 0.00 0.00 79 1014.9
20260507220403 51 119 0.0 0.0 0.00 0.00 0.00 79 1015.0
20260507220203 51 119 0.0 0.0 0.00 0.00 0.00 78 1015.0
20260507220009 51 119 0.0 0.0 0.00 0.00 0.00 78 1014.9
20260507215604 51 119 0.0 0.0 0.00 0.00 0.00 78 1015.0
20260507215405 52 119 0.0 0.0 0.00 0.00 0.00 78 1014.9
20260507215203 52 119 0.0 0.0 0.00 0.00 0.00 78 1015.0
20260507215006 52 119 0.0 0.0 0.00 0.00 0.00 78 1015.0
20260507214804 52 119 0.0 0.0 0.00 0.00 0.00 78 1014.9
20260507214403 52 119 0.0 0.0 0.00 0.00 0.00 77 1015.0
20260507214203 52 119 0.0 0.0 0.00 0.00 0.00 77 1015.0
20260507214004 52 119 0.0 0.0 0.00 0.00 0.00 77 1015.0
20260507213803 52 119 0.0 0.0 0.00 0.00 0.00 77 1015.0
20260507213603 52 119 0.0 0.0 0.00 0.00 0.00 77 1015.0
20260507213403 52 119 0.0 0.0 0.00 0.00 0.00 77 1015.0
20260507213204 52 119 0.0 0.0 0.00 0.00 0.00 77 1015.0
20260507213004 52 119 0.0 0.0 0.00 0.00 0.00 77 1015.0
20260507212805 52 119 0.0 0.0 0.00 0.00 0.00 77 1015.0
20260507212603 52 148 0.0 1.0 0.00 0.00 0.00 77 1015.0
20260507212405 52 148 0.0 1.0 0.00 0.00 0.00 77 1015.0
20260507212204 52 148 0.0 1.0 0.00 0.00 0.00 77 1015.0
20260507211803 52 146 0.0 2.0 0.00 0.00 0.00 77 1015.0
20260507211606 52 165 1.0 2.0 0.00 0.00 0.00 77 1014.9
20260507211203 52 165 1.0 2.0 0.00 0.00 0.00 77 1015.0
20260507211004 52 148 0.0 2.0 0.00 0.00 0.00 77 1015.0
20260507210803 52 147 0.0 2.0 0.00 0.00 0.00 77 1014.9
20260507210603 52 189 0.0 0.0 0.00 0.00 0.00 78 1015.0
20260507210404 52 214 0.0 0.0 0.00 0.00 0.00 78 1014.9
20260507210203 52 221 0.0 0.0 0.00 0.00 0.00 78 1014.9
20260507210007 52 222 0.0 0.0 0.00 0.00 0.00 78 1014.9
20260507205805 52 140 0.0 0.0 0.00 0.00 0.00 78 1014.8
20260507205604 52 139 0.0 0.0 0.00 0.00 0.00 78 1014.9
20260507205404 52 140 0.0 0.0 0.00 0.00 0.00 78 1014.8
20260507205203 52 140 0.0 0.0 0.00 0.00 0.00 78 1014.8
20260507205006 52 140 0.0 0.0 0.00 0.00 0.00 78 1014.7
20260507204803 52 140 0.0 0.0 0.00 0.00 0.00 78 1014.6
20260507204605 53 140 0.0 0.0 0.00 0.00 0.00 78 1014.7
20260507204205 52 140 0.0 0.0 0.00 0.00 0.00 78 1014.6
20260507204004 53 143 0.0 0.0 0.00 0.00 0.00 78 1014.6
20260507203804 53 143 0.0 0.0 0.00 0.00 0.00 78 1014.6
20260507203605 53 144 0.0 0.0 0.00 0.00 0.00 78 1014.6
20260507203403 53 143 0.0 0.0 0.00 0.00 0.00 78 1014.6
20260507203205 53 143 0.0 0.0 0.00 0.00 0.00 78 1014.6
20260507203005 53 143 0.0 0.0 0.00 0.00 0.00 78 1014.6
20260507202806 53 143 0.0 0.0 0.00 0.00 0.00 78 1014.5
20260507202603 53 143 0.0 0.0 0.00 0.00 0.00 78 1014.5
20260507202204 53 143 0.0 0.0 0.00 0.00 0.00 78 1014.5
20260507202007 53 145 0.0 0.0 0.00 0.00 0.00 78 1014.5
20260507201804 53 145 0.0 1.0 0.00 0.00 0.00 78 1014.5
20260507201605 53 145 0.0 1.0 0.00 0.00 0.00 78 1014.5
20260507201404 53 132 0.0 1.0 0.00 0.00 0.00 77 1014.5
20260507201206 53 129 0.0 1.0 0.00 0.00 0.00 77 1014.5
20260507201005 53 129 1.0 1.0 0.00 0.00 0.00 77 1014.5
20260507200805 53 150 0.0 0.0 0.00 0.00 0.00 77 1014.4
20260507200406 53 150 0.0 2.0 0.00 0.00 0.00 77 1014.4
20260507200204 53 150 0.0 2.0 0.00 0.00 0.00 77 1014.4
20260507200009 53 150 0.0 2.0 0.00 0.00 0.00 77 1014.4
20260507195803 53 150 0.0 2.0 0.00 0.00 0.00 77 1014.3
20260507195604 53 148 1.0 3.0 0.00 0.00 0.00 77 1014.3
20260507195204 53 143 0.0 3.0 0.00 0.00 0.00 76 1014.3
20260507195005 53 143 1.0 3.0 0.00 0.00 0.00 76 1014.4
20260507194803 53 98 0.0 2.0 0.00 0.00 0.00 76 1014.4
20260507194604 53 157 1.0 2.0 0.00 0.00 0.00 76 1014.3
20260507194404 53 198 0.0 2.0 0.00 0.00 0.00 76 1014.3
20260507194204 53 183 1.0 2.0 0.00 0.00 0.00 76 1014.3
20260507194006 53 147 1.0 3.0 0.00 0.00 0.00 76 1014.3
20260507193805 53 141 0.0 3.0 0.00 0.00 0.00 76 1014.3
20260507193605 53 150 0.0 3.0 0.00 0.00 0.00 76 1014.3
20260507193404 53 187 1.0 3.0 0.00 0.00 0.00 76 1014.3
20260507193205 53 153 0.0 5.0 0.00 0.00 0.00 77 1014.2
20260507193004 53 154 1.0 5.0 0.00 0.00 0.00 77 1014.2
20260507192805 53 191 1.0 5.0 0.00 0.00 0.00 77 1014.2
20260507192604 53 212 0.0 5.0 0.00 0.00 0.00 77 1014.2
20260507192405 53 86 1.0 5.0 0.00 0.00 0.00 76 1014.3
20260507192204 53 278 0.0 2.0 0.00 0.00 0.00 76 1014.4
20260507192006 53 231 1.0 2.0 0.00 0.00 0.00 75 1014.4
20260507191803 53 209 1.0 2.0 0.00 0.00 0.00 75 1014.4
20260507191605 54 213 0.0 2.0 0.00 0.00 0.00 75 1014.3
20260507191404 54 220 0.0 2.0 0.00 0.00 0.00 74 1014.3
20260507191205 54 227 1.0 4.0 0.00 0.00 0.00 74 1014.3
20260507190805 54 250 1.0 4.0 0.00 0.00 0.00 74 1014.2
20260507190604 54 240 1.0 4.0 0.00 0.00 0.00 73 1014.2
20260507190405 54 250 1.0 3.0 0.00 0.00 0.00 73 1014.2
20260507190204 54 262 1.0 3.0 0.00 0.00 0.00 73 1014.1
20260507190010 54 256 0.0 2.0 0.00 0.00 0.00 73 1014.1
20260507185804 54 231 0.0 2.0 0.00 0.00 0.00 72 1014.0
20260507185604 54 162 0.0 2.0 0.00 0.00 0.00 72 1014.0
20260507185403 54 208 0.0 3.0 0.00 0.00 0.00 72 1014.1
20260507185203 54 218 0.0 3.0 0.00 0.00 0.00 72 1014.0
20260507185004 54 18 0.0 3.0 0.00 0.00 0.00 72 1014.0
20260507184604 55 262 0.0 3.0 0.00 0.00 0.00 71 1014.0
20260507184404 55 255 2.0 3.0 0.00 0.00 0.00 70 1014.0
20260507184204 55 254 1.0 3.0 0.00 0.00 0.00 69 1014.0
20260507184004 55 275 1.0 3.0 0.00 0.00 0.00 68 1013.9
20260507183804 56 268 0.0 3.0 0.00 0.00 0.00 67 1014.0
20260507183604 56 259 0.0 4.0 0.00 0.00 0.00 66 1013.9
20260507183407 56 283 0.0 4.0 0.00 0.00 0.00 65 1013.8
20260507183203 56 95 1.0 4.0 0.00 0.00 0.00 65 1014.0
20260507183006 56 212 0.0 6.0 0.00 0.00 0.00 63 1013.8
20260507182804 56 248 2.0 6.0 0.00 0.00 0.00 62 1013.9
20260507182404 56 167 2.0 6.0 0.00 0.00 0.00 61 1013.8
20260507182206 56 148 0.0 4.0 0.00 0.00 0.00 61 1013.8
20260507182005 56 153 2.0 5.0 0.00 0.00 0.00 61 1013.9
20260507181603 56 166 1.0 5.0 0.00 0.00 0.00 60 1013.7
20260507181405 57 153 3.0 5.0 0.00 0.00 0.00 60 1013.7
20260507181203 57 137 2.0 5.0 0.00 0.00 0.00 60 1013.7
20260507181006 57 240 1.0 4.0 0.00 0.00 0.00 60 1013.7
20260507180605 57 207 1.0 4.0 0.00 0.00 0.00 60 1013.7
20260507180403 57 153 1.0 4.0 0.00 0.00 0.00 60 1013.7
20260507180206 57 160 2.0 4.0 0.00 0.00 0.00 60 1013.7
20260507180006 57 160 2.0 4.0 0.00 0.00 0.00 59 1013.7
20260507175602 57 141 1.0 5.0 0.00 0.00 0.00 59 1013.8
20260507175403 57 134 1.0 7.0 0.00 0.00 0.00 59 1013.7
20260507175202 57 143 2.0 7.0 0.00 0.00 0.00 59 1013.7
20260507175003 57 199 2.0 7.0 0.00 0.00 0.00 59 1013.6
20260507174602 57 191 2.0 5.0 0.00 0.00 0.00 59 1013.8
20260507174202 57 173 2.0 7.0 0.00 0.00 0.00 58 1013.7
20260507173803 57 174 2.0 8.0 0.00 0.00 0.00 58 1013.7
20260507173605 57 248 4.0 8.0 0.00 0.00 0.00 58 1013.7
20260507173403 57 143 3.0 8.0 0.00 0.00 0.00 58 1013.7
20260507173204 57 199 5.0 8.0 0.00 0.00 0.00 57 1013.7
20260507173004 57 169 4.0 11.0 0.00 0.00 0.00 57 1013.7
20260507172805 57 158 4.0 11.0 0.00 0.00 0.00 57 1013.7
20260507172602 57 127 3.0 11.0 0.00 0.00 0.00 56 1013.7
20260507172404 57 219 5.0 11.0 0.00 0.00 0.00 56 1013.7
20260507172202 57 185 4.0 10.0 0.00 0.00 0.00 56 1013.6
20260507172005 57 172 6.0 10.0 0.00 0.00 0.00 56 1013.6
20260507171803 58 129 6.0 10.0 0.00 0.00 0.00 56 1013.6
20260507171604 58 153 5.0 10.0 0.00 0.00 0.00 56 1013.6
20260507171403 58 150 3.0 7.0 0.00 0.00 0.00 56 1013.6
20260507171204 58 175 2.0 6.0 0.00 0.00 0.00 56 1013.7
20260507171003 58 161 3.0 7.0 0.00 0.00 0.00 56 1013.6
20260507170804 58 158 2.0 11.0 0.00 0.00 0.00 56 1013.6
20260507170602 58 152 3.0 13.0 0.00 0.00 0.00 56 1013.6
20260507170404 58 162 3.0 13.0 0.00 0.00 0.00 55 1013.6
20260507170203 58 139 5.0 13.0 0.00 0.00 0.00 55 1013.6
20260507170009 58 159 7.0 13.0 0.00 0.00 0.00 54 1013.7
20260507165802 58 172 4.0 11.0 0.00 0.00 0.00 54 1013.7
20260507165403 58 226 5.0 11.0 0.00 0.00 0.00 53 1013.6
20260507165202 58 128 3.0 9.0 0.00 0.00 0.00 54 1013.7
20260507165003 58 152 2.0 9.0 0.00 0.00 0.00 53 1013.7
20260507164803 58 164 4.0 9.0 0.00 0.00 0.00 53 1013.7
20260507164602 58 155 3.0 9.0 0.00 0.00 0.00 53 1013.6
20260507164402 58 223 4.0 9.0 0.00 0.00 0.00 54 1013.6
20260507164203 58 160 5.0 9.0 0.00 0.00 0.00 53 1013.7
20260507164005 58 162 5.0 9.0 0.00 0.00 0.00 53 1013.7
20260507163804 58 154 2.0 7.0 0.00 0.00 0.00 54 1013.7
20260507163604 58 181 3.0 7.0 0.00 0.00 0.00 53 1013.6
20260507163403 58 125 2.0 7.0 0.00 0.00 0.00 53 1013.7
20260507163204 58 165 2.0 7.0 0.00 0.00 0.00 54 1013.6
20260507163003 58 121 2.0 8.0 0.00 0.00 0.00 54 1013.7
20260507162804 58 200 2.0 8.0 0.00 0.00 0.00 54 1013.7
20260507162404 58 191 3.0 8.0 0.00 0.00 0.00 54 1013.7
20260507162005 58 127 4.0 8.0 0.00 0.00 0.00 54 1013.7
20260507161803 58 148 3.0 8.0 0.00 0.00 0.00 55 1013.7
20260507161604 58 172 3.0 10.0 0.00 0.00 0.00 55 1013.8
20260507161403 58 169 4.0 10.0 0.00 0.00 0.00 55 1013.8
20260507161204 57 98 4.0 10.0 0.00 0.00 0.00 55 1013.8
20260507161004 57 203 4.0 10.0 0.00 0.00 0.00 56 1013.7
20260507160804 57 138 3.0 6.0 0.00 0.00 0.00 56 1013.8
20260507160602 57 174 3.0 6.0 0.00 0.00 0.00 56 1013.7
20260507160404 57 148 3.0 6.0 0.00 0.00 0.00 55 1013.8
20260507160203 57 151 4.0 6.0 0.00 0.00 0.00 55 1013.8
20260507160008 57 165 2.0 6.0 0.00 0.00 0.00 55 1013.8
20260507155604 57 99 2.0 8.0 0.00 0.00 0.00 55 1013.8
20260507155402 57 123 2.0 8.0 0.00 0.00 0.00 55 1013.8
20260507155204 58 144 4.0 8.0 0.00 0.00 0.00 54 1013.8
20260507154804 58 179 2.0 7.0 0.00 0.00 0.00 54 1013.8
20260507154603 58 244 3.0 7.0 0.00 0.00 0.00 54 1013.8
20260507154405 58 146 4.0 8.0 0.00 0.00 0.00 54 1013.8
20260507153603 58 181 3.0 9.0 0.00 0.00 0.00 54 1013.9
20260507153404 58 161 5.0 9.0 0.00 0.00 0.00 54 1013.9
20260507153203 58 150 4.0 11.0 0.00 0.00 0.00 54 1014.0
20260507152802 58 148 3.0 11.0 0.00 0.00 0.00 55 1013.9
20260507152603 58 175 4.0 11.0 0.00 0.00 0.00 55 1013.9
20260507152402 59 155 6.0 11.0 0.00 0.00 0.00 56 1013.9
20260507152202 59 148 4.0 10.0 0.00 0.00 0.00 56 1013.9
20260507152003 59 174 2.0 8.0 0.00 0.00 0.00 57 1013.9
20260507151803 59 188 3.0 8.0 0.00 0.00 0.00 56 1013.9
20260507151402 59 177 3.0 7.0 0.00 0.00 0.00 56 1013.9
20260507151202 59 155 4.0 7.0 0.00 0.00 0.00 56 1014.0
20260507151003 59 96 1.0 10.0 0.00 0.00 0.00 56 1013.9
20260507150602 59 141 4.0 10.0 0.00 0.00 0.00 56 1013.9
20260507150203 59 143 5.0 10.0 0.00 0.00 0.00 56 1013.9
20260507150007 59 155 3.0 8.0 0.00 0.00 0.00 56 1014.0
20260507145804 59 142 4.0 9.0 0.00 0.00 0.00 56 1014.0
20260507145602 59 176 5.0 9.0 0.00 0.00 0.00 56 1014.0
20260507145405 59 112 4.0 9.0 0.00 0.00 0.00 55 1014.0
20260507145202 59 149 4.0 9.0 0.00 0.00 0.00 55 1014.0
20260507145003 59 198 4.0 9.0 0.00 0.00 0.00 55 1013.9
20260507144802 59 167 5.0 9.0 0.00 0.00 0.00 54 1014.0
20260507144602 59 206 3.0 9.0 0.00 0.00 0.00 54 1014.0
20260507144403 59 154 4.0 9.0 0.00 0.00 0.00 54 1014.0
20260507144202 59 178 5.0 9.0 0.00 0.00 0.00 54 1014.1
20260507144004 59 150 5.0 8.0 0.00 0.00 0.00 54 1014.0
20260507143802 59 218 4.0 8.0 0.00 0.00 0.00 55 1014.1
20260507143605 59 134 4.0 8.0 0.00 0.00 0.00 55 1014.2
20260507143404 59 205 4.0 7.0 0.00 0.00 0.00 56 1014.2
20260507143202 59 133 2.0 7.0 0.00 0.00 0.00 56 1014.2
20260507143005 59 209 2.0 7.0 0.00 0.00 0.00 57 1014.2
20260507142802 58 169 2.0 8.0 0.00 0.00 0.00 56 1014.2
20260507142602 59 142 4.0 8.0 0.00 0.00 0.00 56 1014.4
20260507142403 59 176 4.0 8.0 0.00 0.00 0.00 55 1014.3
20260507142202 59 138 4.0 8.0 0.00 0.00 0.00 54 1014.4
20260507142003 59 148 4.0 8.0 0.00 0.00 0.00 54 1014.5
20260507141802 59 217 4.0 8.0 0.00 0.00 0.00 55 1014.5
20260507141602 59 158 2.0 8.0 0.00 0.00 0.00 59 1014.3
20260507141402 58 190 4.0 8.0 0.00 0.00 0.00 59 1014.5
20260507141202 58 174 2.0 9.0 0.00 0.00 0.00 58 1014.5
20260507141003 58 132 4.0 9.0 0.00 0.00 0.00 58 1014.5
20260507140802 59 174 4.0 9.0 0.00 0.00 0.00 57 1014.6
20260507140603 59 143 3.0 9.0 0.00 0.00 0.00 57 1014.7
20260507140403 58 171 4.0 9.0 0.00 0.00 0.00 57 1014.6
20260507140202 59 150 4.0 8.0 0.00 0.00 0.00 56 1014.7
20260507135803 59 165 4.0 8.0 0.00 0.00 0.00 58 1014.6
20260507135603 58 181 2.0 9.0 0.00 0.00 0.00 58 1014.7
20260507135202 58 172 4.0 9.0 0.00 0.00 0.00 58 1014.7
20260507135003 58 153 5.0 9.0 0.00 0.00 0.00 57 1014.8
20260507134602 58 122 3.0 9.0 0.00 0.00 0.00 58 1014.7
20260507134402 58 160 3.0 9.0 0.00 0.00 0.00 59 1014.7
20260507134203 58 119 4.0 9.0 0.00 0.00 0.00 58 1014.8
20260507133803 58 162 5.0 9.0 0.00 0.00 0.00 58 1014.8
20260507133403 58 172 3.0 8.0 0.00 0.00 0.00 59 1014.8
20260507133203 58 155 3.0 8.0 0.00 0.00 0.00 58 1014.9
20260507133005 58 148 4.0 8.0 0.00 0.00 0.00 59 1014.9
20260507132802 58 137 2.0 8.0 0.00 0.00 0.00 60 1015.0
20260507132604 58 153 4.0 8.0 0.00 0.00 0.00 59 1015.0
20260507132402 58 136 4.0 8.0 0.00 0.00 0.00 59 1014.9
20260507132003 58 276 3.0 7.0 0.00 0.00 0.00 59 1014.9
20260507131803 58 155 4.0 9.0 0.00 0.00 0.00 60 1015.0
20260507131602 58 152 2.0 9.0 0.00 0.00 0.00 60 1014.9
20260507131403 57 154 4.0 9.0 0.00 0.00 0.00 60 1014.9
20260507131202 57 167 2.0 9.0 0.00 0.00 0.00 59 1015.0
20260507131004 57 232 4.0 9.0 0.00 0.00 0.00 58 1015.0
20260507130802 57 183 4.0 7.0 0.00 0.00 0.00 59 1015.1
20260507130402 57 144 2.0 9.0 0.00 0.00 0.00 60 1015.0
20260507130203 57 117 2.0 9.0 0.00 0.00 0.00 61 1015.1
20260507130006 57 154 4.0 9.0 0.00 0.00 0.00 60 1015.1
20260507125802 57 147 4.0 8.0 0.00 0.00 0.00 60 1015.1
20260507125602 57 141 3.0 9.0 0.00 0.00 0.00 60 1015.0
20260507125402 57 162 4.0 9.0 0.00 0.00 0.00 60 1015.2
20260507125002 57 156 5.0 11.0 0.00 0.00 0.00 60 1015.0
20260507124802 56 184 2.0 11.0 0.00 0.00 0.00 61 1015.1
20260507124602 56 213 5.0 11.0 0.00 0.00 0.00 60 1015.1
20260507124404 56 166 4.0 10.0 0.00 0.00 0.00 61 1015.3
20260507124202 56 167 5.0 10.0 0.00 0.00 0.00 61 1015.3
20260507124003 56 176 3.0 8.0 0.00 0.00 0.00 62 1015.3
20260507123603 56 165 4.0 8.0 0.00 0.00 0.00 63 1015.2
20260507123402 56 161 3.0 8.0 0.00 0.00 0.00 63 1015.1
20260507123003 55 144 3.0 9.0 0.00 0.00 0.00 63 1015.3
20260507122805 55 150 2.0 9.0 0.00 0.00 0.00 65 1015.3
20260507122602 55 158 2.0 9.0 0.00 0.00 0.00 66 1015.2
20260507122404 55 129 2.0 9.0 0.00 0.00 0.00 66 1015.3
20260507122202 54 146 3.0 7.0 0.00 0.00 0.00 67 1015.3
20260507122005 54 133 2.0 7.0 0.00 0.00 0.00 68 1015.3
20260507121802 54 140 4.0 7.0 0.00 0.00 0.00 68 1015.3
20260507121402 54 216 4.0 9.0 0.00 0.00 0.00 68 1015.3
20260507121204 54 128 4.0 9.0 0.00 0.00 0.00 67 1015.3
20260507121007 54 148 4.0 9.0 0.00 0.00 0.00 68 1015.3
20260507120804 54 146 4.0 9.0 0.00 0.00 0.00 68 1015.4
20260507120602 53 184 3.0 8.0 0.00 0.00 0.00 69 1015.3
20260507120404 53 164 3.0 8.0 0.00 0.00 0.00 69 1015.3
20260507120202 53 127 2.0 8.0 0.00 0.00 0.00 69 1015.3
20260507120007 53 153 3.0 8.0 0.00 0.00 0.00 69 1015.3
20260507115803 53 208 1.0 8.0 0.00 0.00 0.00 70 1015.4
20260507115402 53 138 2.0 6.0 0.00 0.00 0.00 70 1015.3
20260507115003 52 150 2.0 6.0 0.00 0.00 0.00 70 1015.4
20260507114802 52 162 3.0 6.0 0.00 0.00 0.00 70 1015.4
20260507114604 52 146 4.0 6.0 0.00 0.00 0.00 71 1015.4
20260507114402 52 151 2.0 5.0 0.00 0.00 0.00 72 1015.4
20260507114204 52 158 2.0 5.0 0.00 0.00 0.00 72 1015.5
20260507114003 52 142 2.0 5.0 0.00 0.00 0.00 73 1015.5
20260507113803 52 115 1.0 5.0 0.00 0.00 0.00 73 1015.5
20260507113603 52 190 2.0 7.0 0.00 0.00 0.00 73 1015.5
20260507113404 51 124 1.0 7.0 0.00 0.00 0.00 74 1015.4
20260507113202 51 123 2.0 7.0 0.00 0.00 0.00 74 1015.5
20260507113006 51 153 3.0 7.0 0.00 0.00 0.00 74 1015.5
20260507112803 51 193 4.0 7.0 0.00 0.00 0.00 74 1015.5
20260507112402 51 197 2.0 6.0 0.00 0.00 0.00 74 1015.5
20260507112203 51 155 3.0 6.0 0.00 0.00 0.00 74 1015.5
20260507112003 51 165 3.0 7.0 0.00 0.00 0.00 74 1015.6
20260507111803 51 124 3.0 8.0 0.00 0.00 0.00 75 1015.6
20260507111602 51 156 2.0 8.0 0.00 0.00 0.00 76 1015.6
20260507111404 51 153 3.0 8.0 0.00 0.00 0.00 75 1015.6
20260507111202 50 190 4.0 8.0 0.00 0.00 0.00 76 1015.6
20260507111005 50 169 0.0 5.0 0.00 0.00 0.00 78 1015.6
20260507110603 50 139 2.0 6.0 0.00 0.00 0.00 77 1015.6
20260507110402 50 150 3.0 6.0 0.00 0.00 0.00 77 1015.6
20260507110202 50 138 3.0 6.0 0.00 0.00 0.00 77 1015.7
20260507105803 50 169 3.0 6.0 0.00 0.00 0.00 78 1015.7
20260507105202 49 122 1.0 8.0 0.00 0.00 0.00 79 1015.7
20260507105004 49 183 2.0 8.0 0.00 0.00 0.00 79 1015.8